Location: Newark
(47.5833°N, 8.1500°E)
Time: 16:29:09
(UTC+00:00)

A-11 Canister half - Visible Passes

Search period start: 21 October 2020 00:00
Search period end: 31 October 2020 00:00
Orbit: 1526 x 1682 km, 47.3° (Epoch: 20 October)

Date Brightness Start Highest point End Pass type
(mag) Time Alt. Az. Time Alt. Az. Time Alt. Az.
21 Oct 9.1 16:48:51 10° WSW 16:58:14 74° SSE 17:07:30 10° ENE visible
21 Oct 8.8 18:53:50 10° W 19:03:12 89° S 19:06:14 50° E visible
21 Oct 9.8 20:58:52 10° WNW 21:04:31 40° W 21:04:31 40° W visible
22 Oct 8.9 18:32:10 10° W 18:41:34 89° S 18:45:39 40° E visible
22 Oct 9.5 20:37:13 10° WNW 20:43:56 49° W 20:43:56 49° W visible
23 Oct 8.9 18:10:30 10° W 18:19:55 89° S 18:25:04 31° E visible
23 Oct 9.2 20:15:35 10° WNW 20:23:21 59° WSW 20:23:21 59° WSW visible
23 Oct 11.0 22:21:07 10° W 22:21:38 12° W 22:21:38 12° W visible
24 Oct 8.9 17:48:51 10° W 17:58:16 89° S 18:04:31 24° E visible
24 Oct 9.0 19:53:55 10° WNW 20:02:48 66° SW 20:02:48 66° SW visible
24 Oct 10.9 21:59:24 10° W 22:01:05 15° W 22:01:05 15° W visible
25 Oct 9.0 17:27:10 10° W 17:36:37 89° S 17:43:58 19° E visible
25 Oct 8.9 19:32:17 10° WNW 19:41:31 69° SSW 19:42:16 66° S visible
25 Oct 10.7 21:37:42 10° W 21:40:34 19° W 21:40:34 19° W visible
26 Oct 9.0 17:05:30 10° W 17:14:58 89° S 17:23:28 13° E visible
26 Oct 8.9 19:10:38 10° WNW 19:19:53 70° SSW 19:21:46 58° SSE visible
26 Oct 10.4 21:15:59 10° WNW 21:20:03 24° W 21:20:03 24° W visible
27 Oct 9.1 16:43:50 10° W 16:53:19 89° S 17:02:40 10° E visible
27 Oct 9.0 18:48:58 10° WNW 18:58:16 72° SSW 19:01:18 47° SE visible
27 Oct 10.2 20:54:17 10° WNW 20:59:36 28° WSW 20:59:36 28° WSW visible
28 Oct 9.0 18:27:19 10° WNW 18:36:38 73° SSW 18:40:53 37° SE visible
28 Oct 10.0 20:32:36 10° WNW 20:39:11 33° WSW 20:39:11 33° WSW visible
29 Oct 9.0 18:05:40 10° WNW 18:15:00 75° SSW 18:20:31 28° ESE visible
29 Oct 9.8 20:10:54 10° WNW 20:18:49 36° SW 20:18:49 36° SW visible
30 Oct 9.0 17:44:00 10° WNW 17:53:23 76° SSW 18:00:12 21° ESE visible
30 Oct 9.7 19:49:13 10° WNW 19:57:30 38° SW 19:58:31 37° SSW visible
